Station History


Daily Summary for January 15, 2012 Units:  English    Metric   Both
« Previous Day
Next Day »
Daily Weekly Monthly Yearly Custom
  High: Low: Average:
Temperature: 72.0 °F 36.4 °F 51.5 °F
Dew Point: 36.2 °F 14.1 °F 28.2 °F
Humidity: 79% 11% 48%
Wind Speed: 3.5mph 0.0mph 1.8mph
Wind Gust: 3.5mph - -
Wind- - WSW
Pressure: 30.09 in 29.97 in -
Precipitation: 0.00 in    
Historical Graphs
 
 
Tabular Data for January 15, 2012
Time Temperature Dew Point Pressure Wind Wind Speed Wind Gust Humidity Rainfall Rate (Hourly)
00:01 42.3 °F 33.2 °F 30.09 in Calm     70% 0.00 in
00:06 42.1 °F 33.0 °F 30.09 in Calm     70% 0.00 in
00:11 41.8 °F 33.1 °F 30.08 in Calm     71% 0.00 in
00:16 41.6 °F 32.9 °F 30.08 in Calm     71% 0.00 in
00:21 41.6 °F 32.9 °F 30.08 in Calm     71% 0.00 in
00:26 41.7 °F 33.3 °F 30.08 in Calm     72% 0.00 in
00:31 41.9 °F 33.5 °F 30.08 in Calm     72% 0.00 in
00:36 41.7 °F 33.3 °F 30.08 in Calm     72% 0.00 in
00:41 41.5 °F 33.1 °F 30.08 in Calm     72% 0.00 in
00:46 41.3 °F 33.0 °F 30.08 in Calm     72% 0.00 in
00:51 41.5 °F 33.1 °F 30.08 in Calm     72% 0.00 in
00:56 41.3 °F 33.3 °F 30.09 in Calm     73% 0.00 in
01:01 41.1 °F 33.1 °F 30.09 in Calm     73% 0.00 in
01:06 40.9 °F 33.2 °F 30.09 in Calm     74% 0.00 in
01:11 41.1 °F 33.4 °F 30.09 in Calm     74% 0.00 in
01:16 40.9 °F 33.2 °F 30.09 in Calm     74% 0.00 in
01:21 40.8 °F 33.2 °F 30.09 in Calm     74% 0.00 in
01:26 40.6 °F 33.3 °F 30.09 in Calm     75% 0.00 in
01:31 40.3 °F 33.0 °F 30.09 in North 1.0 mph   75% 0.00 in
01:36 40.2 °F 32.9 °F 30.09 in Calm     75% 0.00 in
01:41 40.0 °F 32.7 °F 30.09 in Calm     75% 0.00 in
01:46 40.0 °F 32.4 °F 30.09 in Calm     74% 0.00 in
01:51 40.1 °F 32.1 °F 30.09 in Calm     73% 0.00 in
01:56 40.1 °F 31.8 °F 30.08 in Calm     72% 0.00 in
02:02 40.3 °F 31.6 °F 30.08 in Calm     71% 0.00 in
02:07 40.3 °F 31.6 °F 30.08 in Calm     71% 0.00 in
02:12 40.2 °F 31.2 °F 30.09 in Calm     70% 0.00 in
02:17 40.1 °F 31.1 °F 30.08 in Calm     70% 0.00 in
02:22 39.8 °F 31.2 °F 30.09 in Calm     71% 0.00 in
02:27 39.6 °F 31.3 °F 30.09 in Calm     72% 0.00 in
02:32 39.4 °F 31.1 °F 30.09 in Calm     72% 0.00 in
02:37 39.1 °F 31.2 °F 30.09 in Calm     73% 0.00 in
02:42 38.8 °F 31.2 °F 30.09 in Calm     74% 0.00 in
02:47 38.5 °F 30.9 °F 30.09 in Calm     74% 0.00 in
02:52 38.1 °F 30.9 °F 30.08 in Calm     75% 0.00 in
02:57 37.8 °F 30.9 °F 30.08 in Calm     76% 0.00 in
03:02 37.6 °F 30.7 °F 30.08 in Calm     76% 0.00 in
03:07 37.2 °F 30.7 °F 30.08 in Calm     77% 0.00 in
03:12 36.9 °F 30.7 °F 30.07 in Calm     78% 0.00 in
03:17 36.5 °F 30.3 °F 30.07 in Calm     78% 0.00 in
03:22 36.4 °F 30.5 °F 30.07 in Calm     79% 0.00 in
03:27 36.4 °F 30.2 °F 30.07 in Calm     78% 0.00 in
03:32 36.5 °F 30.3 °F 30.07 in Calm     78% 0.00 in
03:37 37.1 °F 30.9 °F 30.07 in Calm     78% 0.00 in
03:42 37.6 °F 31.0 °F 30.07 in Calm     77% 0.00 in
03:47 38.0 °F 30.8 °F 30.07 in Calm     75% 0.00 in
03:52 38.1 °F 30.9 °F 30.07 in Calm     75% 0.00 in
03:57 38.0 °F 30.8 °F 30.07 in Calm     75% 0.00 in
04:02 37.8 °F 30.6 °F 30.07 in Calm     75% 0.00 in
04:07 37.6 °F 30.7 °F 30.07 in Calm     76% 0.00 in
04:12 37.6 °F 31.0 °F 30.07 in Calm     77% 0.00 in
04:17 37.6 °F 31.0 °F 30.07 in Calm     77% 0.00 in
04:22 37.6 °F 31.0 °F 30.07 in Calm     77% 0.00 in
04:27 37.6 °F 31.0 °F 30.07 in Calm     77% 0.00 in
04:32 37.7 °F 31.5 °F 30.07 in Calm     78% 0.00 in
04:37 38.3 °F 31.7 °F 30.07 in Calm     77% 0.00 in
04:42 38.5 °F 31.6 °F 30.07 in Calm     76% 0.00 in
04:47 38.4 °F 31.5 °F 30.07 in Calm     76% 0.00 in
04:52 38.5 °F 31.6 °F 30.06 in Calm     76% 0.00 in
04:57 38.7 °F 31.8 °F 30.07 in Calm     76% 0.00 in
05:02 38.8 °F 31.6 °F 30.07 in Calm     75% 0.00 in
05:07 38.9 °F 31.6 °F 30.07 in Calm     75% 0.00 in
05:12 39.0 °F 31.4 °F 30.07 in Calm     74% 0.00 in
05:17 39.2 °F 31.6 °F 30.07 in Calm     74% 0.00 in
05:22 39.2 °F 31.6 °F 30.07 in Calm     74% 0.00 in
05:27 39.2 °F 31.3 °F 30.07 in Calm     73% 0.00 in
05:32 39.5 °F 31.6 °F 30.07 in Calm     73% 0.00 in
05:37 39.9 °F 31.6 °F 30.07 in Calm     72% 0.00 in
05:42 40.3 °F 31.6 °F 30.06 in Calm     71% 0.00 in
05:47 40.3 °F 31.6 °F 30.06 in Calm     71% 0.00 in
05:52 40.2 °F 31.5 °F 30.06 in Calm     71% 0.00 in
05:57 39.9 °F 31.3 °F 30.07 in Calm     71% 0.00 in
06:02 39.7 °F 31.4 °F 30.07 in Calm     72% 0.00 in
06:07 39.4 °F 31.1 °F 30.07 in Calm     72% 0.00 in
06:12 39.2 °F 31.3 °F 30.07 in Calm     73% 0.00 in
06:17 39.0 °F 31.4 °F 30.07 in Calm     74% 0.00 in
06:22 38.7 °F 30.8 °F 30.06 in Calm     73% 0.00 in
06:27 38.5 °F 30.9 °F 30.06 in Calm     74% 0.00 in
06:33 38.3 °F 31.1 °F 30.07 in Calm     75% 0.00 in
06:38 38.2 °F 31.0 °F 30.07 in Calm     75% 0.00 in
06:43 38.1 °F 30.5 °F 30.07 in Calm     74% 0.00 in
06:48 38.1 °F 30.5 °F 30.07 in Calm     74% 0.00 in
06:53 38.0 °F 30.8 °F 30.07 in Calm     75% 0.00 in
06:58 38.0 °F 30.8 °F 30.07 in Calm     75% 0.00 in
07:03 38.0 °F 30.8 °F 30.06 in Calm     75% 0.00 in
07:08 38.6 °F 31.0 °F 30.07 in Calm     74% 0.00 in
07:13 39.0 °F 31.1 °F 30.07 in Calm     73% 0.00 in
07:18 38.8 °F 30.9 °F 30.07 in Calm     73% 0.00 in
07:23 38.5 °F 31.3 °F 30.07 in Calm     75% 0.00 in
07:28 38.4 °F 31.2 °F 30.07 in Calm     75% 0.00 in
07:34 38.3 °F 31.4 °F 30.07 in Calm     76% 0.00 in
07:39 38.2 °F 31.3 °F 30.07 in Calm     76% 0.00 in
07:44 38.2 °F 31.3 °F 30.07 in Calm     76% 0.00 in
07:49 38.2 °F 31.6 °F 30.06 in Calm     77% 0.00 in
07:54 38.3 °F 31.7 °F 30.06 in Calm     77% 0.00 in
07:59 39.1 °F 31.8 °F 30.06 in Calm     75% 0.00 in
08:04 40.1 °F 32.1 °F 30.07 in Calm     73% 0.00 in
08:09 40.7 °F 32.0 °F 30.07 in Calm     71% 0.00 in
08:14 41.1 °F 32.1 °F 30.07 in Calm     70% 0.00 in
08:19 41.4 °F 31.6 °F 30.07 in Calm     68% 0.00 in
08:24 42.4 °F 32.2 °F 30.07 in Calm     67% 0.00 in
08:29 43.1 °F 32.1 °F 30.08 in Calm     65% 0.00 in
08:34 44.1 °F 31.9 °F 30.08 in Calm     62% 0.00 in
08:39 45.1 °F 32.0 °F 30.08 in Calm     60% 0.00 in
08:44 46.1 °F 32.6 °F 30.08 in Calm     59% 0.00 in
08:49 46.7 °F 33.1 °F 30.08 in Calm     59% 0.00 in
08:54 46.9 °F 31.1 °F 30.08 in Calm     54% 0.00 in
08:59 47.2 °F 30.0 °F 30.08 in Calm     51% 0.00 in
09:04 48.0 °F 29.7 °F 30.08 in Calm     49% 0.00 in
09:09 48.8 °F 29.4 °F 30.08 in Calm     47% 0.00 in
09:14 49.7 °F 29.7 °F 30.08 in Calm     46% 0.00 in
09:19 50.6 °F 30.0 °F 30.08 in Calm     45% 0.00 in
09:24 51.4 °F 29.6 °F 30.08 in Calm     43% 0.00 in
09:29 52.1 °F 30.3 °F 30.08 in ENE 1.2 mph 1.2 mph 43% 0.00 in
09:34 52.8 °F 29.7 °F 30.08 in Calm     41% 0.00 in
09:39 53.4 °F 29.7 °F 30.08 in Calm     40% 0.00 in
09:44 54.0 °F 29.6 °F 30.08 in Calm   0.1 mph 39% 0.00 in
09:49 55.2 °F 29.4 °F 30.08 in Calm   0.1 mph 37% 0.00 in
09:54 56.1 °F 28.8 °F 30.08 in Calm     35% 0.00 in
09:59 56.7 °F 28.6 °F 30.08 in ENE 1.2 mph   34% 0.00 in
10:04 57.4 °F 29.2 °F 30.08 in Calm     34% 0.00 in
10:09 57.9 °F 28.2 °F 30.08 in Calm     32% 0.00 in
10:15 58.4 °F 25.4 °F 30.08 in Calm     28% 0.00 in
10:20 58.9 °F 27.5 °F 30.08 in Calm     30% 0.00 in
10:25 59.2 °F 26.9 °F 30.08 in Calm     29% 0.00 in
10:30 59.6 °F 28.1 °F 30.08 in Calm     30% 0.00 in
10:35 59.9 °F 28.4 °F 30.08 in North 1.2 mph 1.2 mph 30% 0.00 in
10:40 60.1 °F 29.3 °F 30.07 in Calm     31% 0.00 in
10:45 60.4 °F 28.8 °F 30.07 in Calm     30% 0.00 in
10:50 60.8 °F 29.1 °F 30.07 in Calm     30% 0.00 in
10:55 61.3 °F 29.6 °F 30.07 in Calm     30% 0.00 in
11:00 61.8 °F 32.4 °F 30.06 in Calm     33% 0.00 in
11:05 62.2 °F 31.2 °F 30.06 in Calm     31% 0.00 in
11:10 62.5 °F 29.8 °F 30.06 in Calm     29% 0.00 in
11:15 62.9 °F 28.4 °F 30.05 in Calm     27% 0.00 in
11:20 63.2 °F 25.8 °F 30.05 in Calm   0.1 mph 24% 0.00 in
11:25 63.4 °F 27.9 °F 30.05 in Calm     26% 0.00 in
11:30 63.5 °F 26.0 °F 30.05 in Calm     24% 0.00 in
11:35 63.5 °F 27.0 °F 30.05 in Calm     25% 0.00 in
11:40 63.5 °F 26.0 °F 30.04 in Calm     24% 0.00 in
11:45 63.6 °F 28.1 °F 30.04 in Calm     26% 0.00 in
11:50 63.9 °F 28.3 °F 30.04 in Calm     26% 0.00 in
11:55 64.5 °F 23.7 °F 30.03 in SW 1.2 mph   21% 0.00 in
12:00 65.0 °F 25.2 °F 30.03 in Calm     22% 0.00 in
12:05 65.6 °F 24.6 °F 30.03 in Calm   0.1 mph 21% 0.00 in
12:10 65.9 °F 27.0 °F 30.03 in SE 1.2 mph   23% 0.00 in
12:15 66.0 °F 24.9 °F 30.02 in SE 1.2 mph   21% 0.00 in
12:20 66.2 °F 22.7 °F 30.02 in Calm     19% 0.00 in
12:25 66.8 °F 27.8 °F 30.02 in Calm     23% 0.00 in
12:30 67.1 °F 20.8 °F 30.02 in Calm     17% 0.00 in
12:35 67.8 °F 22.7 °F 30.01 in NNW 2.3 mph 2.3 mph 18% 0.00 in
12:41 67.9 °F 18.5 °F 30.01 in NNW 2.3 mph 2.3 mph 15% 0.00 in
12:46 67.9 °F 18.5 °F 30.01 in Calm     15% 0.00 in
12:51 68.6 °F 15.7 °F 30.01 in WNW 3.5 mph 3.5 mph 13% 0.00 in
12:56 68.6 °F 19.1 °F 30.00 in Calm     15% 0.00 in
13:01 69.3 °F 19.6 °F 30.00 in SSW 1.2 mph   15% 0.00 in
13:06 69.6 °F 14.7 °F 30.00 in SW 1.2 mph 1.2 mph 12% 0.00 in
13:11 69.3 °F 16.3 °F 30.00 in SSW 2.3 mph 2.3 mph 13% 0.00 in
13:16 69.0 °F 14.2 °F 30.00 in South 2.3 mph 2.3 mph 12% 0.00 in
13:21 68.8 °F 14.1 °F 29.99 in WSW 1.2 mph 1.2 mph 12% 0.00 in
13:26 68.9 °F 16.0 °F 29.99 in West 1.2 mph   13% 0.00 in
13:32 69.1 °F 14.3 °F 29.99 in Calm     12% 0.00 in
13:37 69.2 °F 17.9 °F 29.99 in Calm     14% 0.00 in
13:42 69.6 °F 16.5 °F 29.99 in WSW 2.3 mph 2.3 mph 13% 0.00 in
13:47 69.9 °F 14.9 °F 29.99 in ENE 1.2 mph 1.2 mph 12% 0.00 in
13:52 70.2 °F 15.1 °F 29.98 in North 2.3 mph 2.3 mph 12% 0.00 in
13:57 70.2 °F 15.1 °F 29.98 in WSW 2.3 mph 2.3 mph 12% 0.00 in
14:02 70.2 °F 18.7 °F 29.98 in Calm     14% 0.00 in
14:07 70.2 °F 15.1 °F 29.98 in SSW 2.3 mph 2.3 mph 12% 0.00 in
14:12 70.7 °F 15.5 °F 29.98 in West 2.3 mph 2.3 mph 12% 0.00 in
14:17 71.1 °F 15.9 °F 29.98 in SW 1.2 mph 1.2 mph 12% 0.00 in
14:22 71.5 °F 16.2 °F 29.97 in WSW 2.3 mph 2.3 mph 12% 0.00 in
14:27 71.7 °F 16.3 °F 29.98 in Calm     12% 0.00 in
14:32 72.0 °F 14.6 °F 29.97 in SE 3.5 mph 3.5 mph 11% 0.00 in
14:37 71.7 °F 14.3 °F 29.97 in South 2.3 mph 2.3 mph 11% 0.00 in
14:42 71.6 °F 16.2 °F 29.97 in SSW 1.2 mph   12% 0.00 in
14:47 71.5 °F 14.2 °F 29.97 in SSW 2.3 mph 2.3 mph 11% 0.00 in
14:52 71.8 °F 16.4 °F 29.97 in SE 1.2 mph 1.2 mph 12% 0.00 in
14:57 71.7 °F 16.3 °F 29.97 in NNW 3.5 mph 3.5 mph 12% 0.00 in
15:02 71.0 °F 15.8 °F 29.97 in WNW 2.3 mph 2.3 mph 12% 0.00 in
15:07 70.8 °F 17.5 °F 29.97 in WNW 3.0 mph 3.0 mph 13% 0.00 in
15:12 70.8 °F 17.5 °F 29.97 in North 2.3 mph 2.3 mph 13% 0.00 in
15:17 70.4 °F 15.3 °F 29.97 in NW 1.2 mph 1.2 mph 12% 0.00 in
15:22 70.2 °F 17.0 °F 29.97 in WNW 2.0 mph 2.0 mph 13% 0.00 in
15:27 70.5 °F 17.2 °F 29.97 in Calm     13% 0.00 in
15:33 70.3 °F 17.1 °F 29.97 in NNW 1.2 mph 1.2 mph 13% 0.00 in
15:38 70.0 °F 16.8 °F 29.97 in South 1.2 mph 1.2 mph 13% 0.00 in
15:43 70.0 °F 16.8 °F 29.97 in Calm     13% 0.00 in
15:48 70.2 °F 18.7 °F 29.97 in Calm     14% 0.00 in
15:53 70.0 °F 18.6 °F 29.97 in Calm     14% 0.00 in
15:58 69.4 °F 16.4 °F 29.97 in West 1.2 mph   13% 0.00 in
16:03 68.6 °F 17.4 °F 29.97 in West 1.2 mph   14% 0.00 in
16:08 67.9 °F 18.5 °F 29.97 in Calm     15% 0.00 in
16:13 67.3 °F 18.0 °F 29.97 in Calm     15% 0.00 in
16:18 66.7 °F 20.5 °F 29.97 in Calm     17% 0.00 in
16:23 66.2 °F 18.6 °F 29.97 in Calm     16% 0.00 in
16:28 65.6 °F 19.6 °F 29.97 in Calm     17% 0.00 in
16:33 65.3 °F 21.9 °F 29.97 in Calm     19% 0.00 in
16:38 64.9 °F 24.0 °F 29.97 in Calm     21% 0.00 in
16:43 64.4 °F 23.6 °F 29.97 in Calm     21% 0.00 in
16:48 63.8 °F 25.3 °F 29.97 in Calm     23% 0.00 in
16:53 63.4 °F 24.9 °F 29.97 in Calm     23% 0.00 in
16:58 62.9 °F 24.5 °F 29.97 in Calm     23% 0.00 in
17:03 62.3 °F 22.9 °F 29.97 in Calm     22% 0.00 in
17:08 61.7 °F 22.4 °F 29.97 in Calm     22% 0.00 in
17:13 61.3 °F 23.1 °F 29.97 in Calm     23% 0.00 in
17:18 60.7 °F 23.7 °F 29.97 in Calm     24% 0.00 in
17:23 60.2 °F 24.2 °F 29.97 in Calm     25% 0.00 in
17:28 59.7 °F 24.7 °F 29.97 in Calm     26% 0.00 in
17:34 59.0 °F 25.9 °F 29.98 in Calm     28% 0.00 in
17:39 58.6 °F 27.2 °F 29.98 in Calm     30% 0.00 in
17:44 58.1 °F 26.0 °F 29.98 in Calm     29% 0.00 in
17:49 57.6 °F 26.4 °F 29.98 in Calm     30% 0.00 in
17:54 57.2 °F 26.0 °F 29.98 in Calm     30% 0.00 in
17:59 56.8 °F 24.8 °F 29.98 in Calm     29% 0.00 in
18:04 56.8 °F 24.8 °F 29.98 in Calm     29% 0.00 in
18:09 57.0 °F 24.2 °F 29.98 in Calm     28% 0.00 in
18:14 57.2 °F 22.6 °F 29.98 in Calm     26% 0.00 in
18:19 57.3 °F 23.6 °F 29.98 in Calm     27% 0.00 in
18:24 57.6 °F 23.8 °F 29.98 in Calm     27% 0.00 in
18:29 57.7 °F 24.8 °F 29.98 in WSW 1.2 mph   28% 0.00 in
18:34 57.7 °F 26.4 °F 29.98 in Calm     30% 0.00 in
18:40 57.2 °F 26.0 °F 29.98 in Calm     30% 0.00 in
18:45 56.7 °F 26.4 °F 29.98 in Calm   0.1 mph 31% 0.00 in
18:50 56.5 °F 27.0 °F 29.98 in Calm     32% 0.00 in
18:55 56.4 °F 27.6 °F 29.98 in Calm     33% 0.00 in
19:00 55.8 °F 27.8 °F 29.98 in Calm     34% 0.00 in
19:05 55.2 °F 27.3 °F 29.98 in Calm     34% 0.00 in
19:10 54.6 °F 28.2 °F 29.98 in Calm     36% 0.00 in
19:15 53.7 °F 27.4 °F 29.98 in Calm     36% 0.00 in
19:20 52.8 °F 27.9 °F 29.98 in Calm     38% 0.00 in
19:25 52.2 °F 28.0 °F 29.99 in Calm     39% 0.00 in
19:30 52.0 °F 27.8 °F 29.99 in Calm     39% 0.00 in
19:35 51.9 °F 28.3 °F 29.99 in Calm     40% 0.00 in
19:41 51.6 °F 28.6 °F 29.99 in Calm     41% 0.00 in
19:46 51.2 °F 28.9 °F 29.99 in Calm     42% 0.00 in
19:51 51.2 °F 29.4 °F 30.00 in Calm     43% 0.00 in
19:56 51.4 °F 30.7 °F 30.00 in Calm     45% 0.00 in
20:01 51.8 °F 31.1 °F 30.00 in Calm     45% 0.00 in
20:06 52.2 °F 30.9 °F 30.00 in Calm     44% 0.00 in
20:11 52.7 °F 31.4 °F 30.01 in Calm     44% 0.00 in
20:16 52.6 °F 31.3 °F 30.01 in Calm     44% 0.00 in
20:21 52.3 °F 32.1 °F 30.01 in Calm     46% 0.00 in
20:26 52.0 °F 32.4 °F 30.01 in Calm     47% 0.00 in
20:31 51.8 °F 32.7 °F 30.01 in Calm     48% 0.00 in
20:36 51.7 °F 32.6 °F 30.02 in Calm     48% 0.00 in
20:41 51.4 °F 32.9 °F 30.02 in Calm     49% 0.00 in
20:46 50.9 °F 32.9 °F 30.02 in Calm     50% 0.00 in
20:51 50.4 °F 32.4 °F 30.02 in Calm     50% 0.00 in
20:56 50.2 °F 33.2 °F 30.02 in Calm     52% 0.00 in
21:00 50.2 °F 32.8 °F 30.02 in Calm     51% 0.00 in
21:01 50.2 °F 33.2 °F 30.03 in Calm     52% 0.00 in
21:06 49.9 °F 33.0 °F 30.03 in Calm     52% 0.00 in
21:11 49.6 °F 33.2 °F 30.03 in Calm     53% 0.00 in
21:16 49.5 °F 33.1 °F 30.03 in Calm     53% 0.00 in
21:21 49.1 °F 33.2 °F 30.03 in Calm     54% 0.00 in
21:26 49.0 °F 33.1 °F 30.03 in Calm     54% 0.00 in
21:32 48.8 °F 33.3 °F 30.03 in Calm     55% 0.00 in
21:37 48.4 °F 33.4 °F 30.03 in Calm     56% 0.00 in
21:42 48.1 °F 33.1 °F 30.03 in Calm     56% 0.00 in
21:47 48.3 °F 33.3 °F 30.04 in Calm     56% 0.00 in
21:52 48.3 °F 33.3 °F 30.04 in Calm     56% 0.00 in
21:57 48.4 °F 33.0 °F 30.05 in WNW 1.2 mph 1.2 mph 55% 0.00 in
22:02 48.6 °F 33.1 °F 30.05 in WNW 1.2 mph 1.2 mph 55% 0.00 in
22:07 48.5 °F 33.1 °F 30.04 in Calm     55% 0.00 in
22:12 48.1 °F 33.1 °F 30.05 in Calm     56% 0.00 in
22:17 47.7 °F 32.8 °F 30.04 in Calm     56% 0.00 in
22:22 47.4 °F 33.4 °F 30.05 in NNW 2.3 mph 2.3 mph 58% 0.00 in
22:27 47.0 °F 33.4 °F 30.06 in South 1.2 mph   59% 0.00 in
22:32 46.6 °F 33.9 °F 30.06 in NNW 1.2 mph 1.2 mph 61% 0.00 in
22:37 46.3 °F 34.0 °F 30.06 in Calm   0.1 mph 62% 0.00 in
22:43 46.0 °F 34.1 °F 30.06 in Calm     63% 0.00 in
22:48 45.7 °F 34.6 °F 30.06 in Calm     65% 0.00 in
22:53 45.2 °F 34.1 °F 30.06 in Calm     65% 0.00 in
22:58 44.7 °F 34.4 °F 30.07 in Calm     67% 0.00 in
23:03 44.5 °F 35.0 °F 30.07 in Calm     69% 0.00 in
23:08 44.6 °F 35.1 °F 30.07 in NNW 1.2 mph 1.2 mph 69% 0.00 in
23:13 44.7 °F 35.5 °F 30.07 in NW 2.3 mph 2.3 mph 70% 0.00 in
23:18 44.8 °F 35.6 °F 30.07 in NNW 1.2 mph 1.2 mph 70% 0.00 in
23:23 44.7 °F 35.9 °F 30.07 in NNW 1.2 mph   71% 0.00 in
23:28 44.7 °F 36.2 °F 30.07 in WNW 2.3 mph   72% 0.00 in
23:34 44.6 °F 36.1 °F 30.08 in Calm     72% 0.00 in
23:39 44.4 °F 35.9 °F 30.08 in Calm     72% 0.00 in
23:44 44.1 °F 36.0 °F 30.08 in Calm     73% 0.00 in
23:49 43.8 °F 35.7 °F 30.08 in Calm     73% 0.00 in
23:54 43.4 °F 35.3 °F 30.08 in Calm     73% 0.00 in
23:59 43.0 °F 35.6 °F 30.08 in Calm     75% 0.00 in
Compliments of Weather Underground